Location: Newark
(46.7636°N, 1.8358°W)
Time: 11:36:02
(UTC+00:00)

Vanguard 1 Rocket - Pass Details

Date: 22 October 2019
Orbit: 651 x 4226 km, 34.3° (Epoch: 20 November)

Event Time Altitude Azimuth Distance (km) Brightness Sun altitude
Rises 18:03:43 0° 280° (W) 8,149 14.0 -10.1°
Reaches altitude 10° 18:12:46 10° 264° (W) 7,390 13.6 -11.7°
Maximum altitude 18:25:28 16° 234° (SW) 6,763 12.6 -13.8°
Drops below altitude 10° 18:37:27 10° 203° (SSW) 6,815 12.1 -15.9°
Sets 18:45:25 0° 185° (S) 7,246 12.0 -17.3°
